When you browse on this site, cookies collect data to enhance your experience and personalize the content and advertising you see.
Visit our Privacy Policy to learn more. By continuing to use the site, you agree to this use of cookies and data.
  • En España
  • Lista de países
  • Para 7 días
  • Temperatura del agua
  • El tiempo en el mapa
  • Informadores
  • user-avatar
    Iniciar sesión

    Tiempo cada hora Badalona

    Hoy, 31 Marzo, Martes

    Tiempo Temperatura Precipitaciones Viento Presión Humedad
    00:00 +10°C° 0 mm 3 mps 757 mmHg 79%
    01:00 +10°C° 0 mm 4 mps 756 mmHg 77%
    02:00 +10°C° 0 mm 4 mps 756 mmHg 76%
    03:00 +9°C° 0 mm 5 mps 756 mmHg 75%
    04:00 +9°C° 0 mm 5 mps 756 mmHg 74%
    05:00 +9°C° 0 mm 6 mps 756 mmHg 74%
    06:00 +9°C° 0 mm 6 mps 756 mmHg 72%
    07:00 +9°C° 0 mm 6 mps 756 mmHg 71%
    08:00 +10°C° 0 mm 6 mps 756 mmHg 69%
    09:00 +11°C° 0 mm 6 mps 756 mmHg 67%
    10:00 +12°C° 0 mm 7 mps 756 mmHg 62%
    11:00 +15°C° 0 mm 7 mps 756 mmHg 57%
    12:00 +16°C° 0 mm 7 mps 756 mmHg 54%
    13:00 +15°C° 0.2 mm 8 mps 756 mmHg 57%
    14:00 +15°C° 0.2 mm 8 mps 755 mmHg 60%
    15:00 +13°C° 0.2 mm 9 mps 755 mmHg 63%
    16:00 +13°C° 1.3 mm 8 mps 755 mmHg 68%
    17:00 +12°C° 1.3 mm 7 mps 755 mmHg 74%
    18:00 +11°C° 1.3 mm 7 mps 755 mmHg 80%
    19:00 +11°C° 1.2 mm 7 mps 756 mmHg 81%
    20:00 +11°C° 1.2 mm 6 mps 756 mmHg 82%
    21:00 +11°C° 1.2 mm 6 mps 757 mmHg 83%
    22:00 +11°C° 0.7 mm 6 mps 757 mmHg 84%
    23:00 +11°C° 0.7 mm 6 mps 757 mmHg 86%

    Mañana, 1 Abril, Miércoles

    Tiempo Temperatura Precipitaciones Viento Presión Humedad
    00:00 +11°C° 0.7 mm 6 mps 757 mmHg 87%
    01:00 +11°C° 1 mm 7 mps 757 mmHg 88%
    02:00 +11°C° 1 mm 7 mps 756 mmHg 89%
    03:00 +11°C° 1 mm 8 mps 756 mmHg 89%
    04:00 +10°C° 0.7 mm 8 mps 756 mmHg 88%
    05:00 +10°C° 0.7 mm 8 mps 756 mmHg 86%
    06:00 +10°C° 0.7 mm 8 mps 756 mmHg 84%
    07:00 +10°C° 0.5 mm 8 mps 757 mmHg 84%
    08:00 +10°C° 0.5 mm 8 mps 757 mmHg 83%
    09:00 +10°C° 0.5 mm 8 mps 757 mmHg 83%
    10:00 +10°C° 0.3 mm 8 mps 757 mmHg 82%
    11:00 +10°C° 0.3 mm 8 mps 757 mmHg 82%
    12:00 +11°C° 0.3 mm 8 mps 757 mmHg 81%
    13:00 +11°C° 0.7 mm 9 mps 756 mmHg 79%
    14:00 +11°C° 0.7 mm 9 mps 756 mmHg 78%
    15:00 +11°C° 0.7 mm 9 mps 755 mmHg 76%
    16:00 +10°C° 3.5 mm 9 mps 755 mmHg 79%
    17:00 +10°C° 3.5 mm 9 mps 755 mmHg 82%
    18:00 +8°C° 3.5 mm 9 mps 755 mmHg 85%
    19:00 +8°C° 3.1 mm 9 mps 755 mmHg 86%
    20:00 +8°C° 3.1 mm 9 mps 755 mmHg 87%
    21:00 +9°C° 3.1 mm 8 mps 756 mmHg 88%
    22:00 +9°C° 3.4 mm 8 mps 755 mmHg 88%
    23:00 +9°C° 3.4 mm 8 mps 755 mmHg 88%

    Pasado mañana, 2 Abril, Jueves

    Tiempo Temperatura Precipitaciones Viento Presión Humedad
    00:00 +9°C° 3.4 mm 8 mps 755 mmHg 88%
    01:00 +9°C° 1.9 mm 8 mps 755 mmHg 88%
    02:00 +9°C° 1.9 mm 8 mps 754 mmHg 88%
    03:00 +9°C° 1.9 mm 8 mps 754 mmHg 87%
    04:00 +9°C° 0.8 mm 8 mps 754 mmHg 85%
    05:00 +9°C° 0.8 mm 8 mps 754 mmHg 83%
    06:00 +9°C° 0.8 mm 8 mps 753 mmHg 81%
    07:00 +10°C° 0.6 mm 8 mps 754 mmHg 79%
    08:00 +10°C° 0.6 mm 8 mps 754 mmHg 77%
    09:00 +10°C° 0.6 mm 8 mps 754 mmHg 75%
    10:00 +10°C° 0.6 mm 8 mps 754 mmHg 75%
    11:00 +10°C° 0.6 mm 8 mps 754 mmHg 76%
    12:00 +10°C° 0.6 mm 8 mps 755 mmHg 76%
    13:00 +11°C° 0.5 mm 8 mps 754 mmHg 74%
    14:00 +11°C° 0.5 mm 8 mps 754 mmHg 72%
    15:00 +12°C° 0.5 mm 8 mps 754 mmHg 70%
    16:00 +11°C° 0.2 mm 7 mps 754 mmHg 72%
    17:00 +11°C° 0.2 mm 7 mps 754 mmHg 73%
    18:00 +11°C° 0.2 mm 7 mps 755 mmHg 74%
    19:00 +11°C° 0 mm 6 mps 755 mmHg 75%
    20:00 +10°C° 0 mm 6 mps 755 mmHg 76%
    21:00 +10°C° 0 mm 5 mps 756 mmHg 77%
    22:00 +10°C° 0 mm 5 mps 756 mmHg 77%
    23:00 +11°C° 0 mm 4 mps 756 mmHg 76%

    3 Abril, Viernes

    Tiempo Temperatura Precipitaciones Viento Presión Humedad
    00:00 +11°C° 0 mm 4 mps 756 mmHg 76%
    01:00 +11°C° 0 mm 4 mps 756 mmHg 77%
    02:00 +11°C° 0 mm 3 mps 755 mmHg 77%
    03:00 +10°C° 0 mm 3 mps 755 mmHg 77%
    04:00 +10°C° 0 mm 3 mps 756 mmHg 77%
    05:00 +10°C° 0 mm 3 mps 756 mmHg 76%
    06:00 +10°C° 0 mm 3 mps 756 mmHg 75%
    07:00 +12°C° 0 mm 3 mps 756 mmHg 69%
    08:00 +14°C° 0 mm 2 mps 756 mmHg 63%
    09:00 +16°C° 0 mm 2 mps 757 mmHg 57%
    10:00 +16°C° 0 mm 2 mps 757 mmHg 55%
    11:00 +17°C° 0 mm 3 mps 757 mmHg 53%
    12:00 +17°C° 0 mm 3 mps 757 mmHg 51%
    13:00 +17°C° 0 mm 3 mps 757 mmHg 56%
    14:00 +15°C° 0 mm 4 mps 757 mmHg 60%
    15:00 +14°C° 0 mm 4 mps 757 mmHg 64%
    16:00 +14°C° 0 mm 3 mps 757 mmHg 66%
    17:00 +13°C° 0 mm 3 mps 757 mmHg 68%
    18:00 +14°C° 0 mm 2 mps 757 mmHg 70%
    19:00 +14°C° 0 mm 1 mps 758 mmHg 70%
    20:00 +14°C° 0 mm 1 mps 758 mmHg 71%
    21:00 +13°C° 0 mm 1 mps 759 mmHg 71%
    22:00 +13°C° 0 mm 1 mps 759 mmHg 72%
    23:00 +13°C° 0 mm 1 mps 759 mmHg 72%

    4 Abril, Sábado

    Tiempo Temperatura Precipitaciones Viento Presión Humedad
    00:00 +13°C° 0 mm 1 mps 759 mmHg 73%
    01:00 +13°C° 0 mm 1 mps 759 mmHg 74%
    02:00 +12°C° 0 mm 1 mps 759 mmHg 75%
    03:00 +12°C° 0 mm 1 mps 759 mmHg 76%
    04:00 +12°C° 0 mm 1 mps 759 mmHg 75%
    05:00 +12°C° 0 mm 1 mps 759 mmHg 75%
    06:00 +12°C° 0 mm 1 mps 760 mmHg 75%
    07:00 +13°C° 0 mm 1 mps 760 mmHg 71%
    08:00 +14°C° 0 mm 1 mps 760 mmHg 67%
    09:00 +16°C° 0 mm 1 mps 760 mmHg 63%
    10:00 +16°C° 0 mm 2 mps 760 mmHg 59%
    11:00 +17°C° 0 mm 2 mps 760 mmHg 55%
    12:00 +18°C° 0 mm 2 mps 760 mmHg 51%
    13:00 +18°C° 0 mm 2 mps 760 mmHg 52%
    14:00 +18°C° 0 mm 2 mps 760 mmHg 52%
    15:00 +18°C° 0 mm 2 mps 760 mmHg 53%
    16:00 +17°C° 0 mm 2 mps 760 mmHg 57%
    17:00 +16°C° 0 mm 2 mps 760 mmHg 61%
    18:00 +15°C° 0 mm 2 mps 760 mmHg 65%
    19:00 +14°C° 0 mm 2 mps 760 mmHg 69%
    20:00 +14°C° 0 mm 2 mps 761 mmHg 72%
    21:00 +13°C° 0 mm 1 mps 761 mmHg 75%
    22:00 +13°C° 0 mm 1 mps 761 mmHg 76%
    23:00 +12°C° 0 mm 1 mps 762 mmHg 77%

    5 Abril, Domingo

    Tiempo Temperatura Precipitaciones Viento Presión Humedad
    00:00 +12°C° 0 mm 2 mps 762 mmHg 78%
    01:00 +12°C° 0 mm 1 mps 761 mmHg 78%
    02:00 +11°C° 0 mm 1 mps 761 mmHg 78%
    03:00 +11°C° 0 mm 1 mps 761 mmHg 78%
    04:00 +11°C° 0 mm 1 mps 761 mmHg 77%
    05:00 +11°C° 0 mm 1 mps 761 mmHg 77%
    06:00 +11°C° 0 mm 1 mps 761 mmHg 76%
    07:00 +12°C° 0 mm 1 mps 761 mmHg 70%
    08:00 +13°C° 0 mm 2 mps 761 mmHg 63%
    09:00 +15°C° 0 mm 2 mps 761 mmHg 57%
    10:00 +16°C° 0 mm 2 mps 760 mmHg 54%
    11:00 +16°C° 0 mm 2 mps 760 mmHg 51%
    12:00 +17°C° 0 mm 3 mps 760 mmHg 49%
    13:00 +17°C° 0 mm 3 mps 760 mmHg 50%
    14:00 +17°C° 0 mm 3 mps 759 mmHg 52%
    15:00 +17°C° 0 mm 3 mps 759 mmHg 54%
    16:00 +16°C° 0 mm 3 mps 759 mmHg 58%
    17:00 +14°C° 0 mm 3 mps 759 mmHg 62%
    18:00 +13°C° 0 mm 3 mps 759 mmHg 66%
    19:00 +14°C° 0 mm 2 mps 759 mmHg 68%
    20:00 +13°C° 0 mm 2 mps 759 mmHg 71%
    21:00 +13°C° 0 mm 2 mps 760 mmHg 73%
    22:00 +13°C° 0 mm 2 mps 760 mmHg 74%
    23:00 +13°C° 0 mm 1 mps 760 mmHg 74%
    Mostrar más